• In Uzbekistan
  • List of Countries
  • For 7 days
  • Water Temperature
  • Satellite Maps
  • Weather Map
  • Weather Widgets
  • user-avatar
    Login

    Hourly Weather Kadysi

    Today, 28 May, Monday

    Time Temperature Precipitation Wind Pressure Humidity
    00:00 +11°C° 1.5 mm 6 mps 741 mmHg 94%
    01:00 +11°C° 1.5 mm 6 mps 741 mmHg 94%
    02:00 +10°C° 2.7 mm 5 mps 740 mmHg 94%
    03:00 +9°C° 2.7 mm 5 mps 740 mmHg 94%
    04:00 +8°C° 2.7 mm 4 mps 740 mmHg 95%
    05:00 +7°C° 1.5 mm 4 mps 740 mmHg 94%
    06:00 +8°C° 1.5 mm 3 mps 740 mmHg 93%
    07:00 +7°C° 1.5 mm 3 mps 740 mmHg 93%
    08:00 +9°C° 0.2 mm 3 mps 741 mmHg 84%
    09:00 +10°C° 0.2 mm 3 mps 741 mmHg 74%
    10:00 +12°C° 0.2 mm 3 mps 742 mmHg 65%
    11:00 +11°C° 0.6 mm 3 mps 742 mmHg 67%
    12:00 +11°C° 0.6 mm 4 mps 743 mmHg 69%
    13:00 +11°C° 0.6 mm 4 mps 743 mmHg 71%
    14:00 +11°C° 0.5 mm 4 mps 743 mmHg 72%
    15:00 +9°C° 0.5 mm 5 mps 744 mmHg 73%
    16:00 +8°C° 0.5 mm 5 mps 744 mmHg 74%
    17:00 +8°C° 0.1 mm 4 mps 745 mmHg 72%
    18:00 +8°C° 0.1 mm 4 mps 745 mmHg 70%
    19:00 +7°C° 0.1 mm 4 mps 745 mmHg 68%
    20:00 +7°C° 0 mm 3 mps 746 mmHg 70%
    21:00 +5°C° 0 mm 3 mps 746 mmHg 73%
    22:00 +3°C° 0 mm 3 mps 747 mmHg 75%
    23:00 +4°C° 0 mm 2 mps 747 mmHg 78%

    Tomorrow, 29 May, Tuesday

    Time Temperature Precipitation Wind Pressure Humidity
    00:00 +3°C° 0 mm 2 mps 748 mmHg 80%
    01:00 +3°C° 0 mm 2 mps 748 mmHg 83%
    02:00 +2°C° 0 mm 2 mps 748 mmHg 85%
    03:00 +2°C° 0 mm 2 mps 748 mmHg 86%
    04:00 +1°C° 0 mm 2 mps 748 mmHg 88%
    05:00 +3°C° 0 mm 2 mps 748 mmHg 81%
    06:00 +3°C° 0 mm 3 mps 748 mmHg 74%
    07:00 +5°C° 0 mm 3 mps 748 mmHg 67%
    08:00 +7°C° 0 mm 3 mps 748 mmHg 60%
    09:00 +7°C° 0 mm 4 mps 748 mmHg 54%
    10:00 +8°C° 0 mm 4 mps 747 mmHg 48%
    11:00 +10°C° 0 mm 4 mps 747 mmHg 49%
    12:00 +10°C° 0 mm 4 mps 747 mmHg 51%
    13:00 +10°C° 0 mm 4 mps 746 mmHg 52%
    14:00 +10°C° 0.1 mm 4 mps 746 mmHg 55%
    15:00 +10°C° 0.1 mm 4 mps 746 mmHg 58%
    16:00 +10°C° 0.1 mm 4 mps 745 mmHg 61%
    17:00 +9°C° 0.1 mm 3 mps 745 mmHg 67%
    18:00 +9°C° 0.1 mm 3 mps 745 mmHg 73%
    19:00 +8°C° 0.1 mm 2 mps 744 mmHg 79%
    20:00 +7°C° 0 mm 2 mps 744 mmHg 84%
    21:00 +7°C° 0 mm 1 mps 744 mmHg 90%
    22:00 +5°C° 0 mm 1 mps 745 mmHg 96%
    23:00 +5°C° 0 mm 1 mps 744 mmHg 96%

    Day after tomorrow, 30 May, Wednesday

    Time Temperature Precipitation Wind Pressure Humidity
    00:00 +5°C° 0 mm 1 mps 744 mmHg 97%
    01:00 +5°C° 0 mm 1 mps 744 mmHg 97%
    02:00 +5°C° 0 mm 1 mps 744 mmHg 97%
    03:00 +4°C° 0 mm 2 mps 744 mmHg 97%
    04:00 +4°C° 0 mm 2 mps 744 mmHg 97%
    05:00 +5°C° 0 mm 2 mps 743 mmHg 95%
    06:00 +5°C° 0 mm 3 mps 743 mmHg 92%
    07:00 +7°C° 0 mm 3 mps 743 mmHg 90%
    08:00 +8°C° 0 mm 4 mps 743 mmHg 85%
    09:00 +10°C° 0 mm 4 mps 742 mmHg 79%
    10:00 +11°C° 0 mm 4 mps 742 mmHg 74%
    11:00 +10°C° 0.4 mm 5 mps 741 mmHg 79%
    12:00 +9°C° 0.4 mm 5 mps 740 mmHg 85%
    13:00 +9°C° 0.4 mm 6 mps 739 mmHg 90%
    14:00 +10°C° 0.1 mm 6 mps 739 mmHg 89%
    15:00 +11°C° 0.1 mm 6 mps 738 mmHg 88%
    16:00 +13°C° 0.1 mm 6 mps 737 mmHg 87%
    17:00 +14°C° 0.3 mm 6 mps 736 mmHg 86%
    18:00 +15°C° 0.3 mm 6 mps 735 mmHg 85%
    19:00 +15°C° 0.3 mm 5 mps 734 mmHg 84%
    20:00 +15°C° 0.9 mm 6 mps 734 mmHg 87%
    21:00 +14°C° 0.9 mm 6 mps 733 mmHg 90%
    22:00 +14°C° 0.9 mm 6 mps 733 mmHg 92%
    23:00 +14°C° 1.5 mm 6 mps 732 mmHg 93%

    31 May, Thursday

    Time Temperature Precipitation Wind Pressure Humidity
    00:00 +13°C° 1.5 mm 6 mps 732 mmHg 93%
    01:00 +13°C° 1.5 mm 6 mps 731 mmHg 93%
    02:00 +11°C° 0.6 mm 6 mps 732 mmHg 93%
    03:00 +10°C° 0.6 mm 5 mps 732 mmHg 94%
    04:00 +9°C° 0.6 mm 5 mps 732 mmHg 94%
    05:00 +9°C° 0 mm 5 mps 733 mmHg 93%
    06:00 +9°C° 0 mm 6 mps 733 mmHg 92%
    07:00 +9°C° 0 mm 6 mps 734 mmHg 90%
    08:00 +9°C° 0.1 mm 6 mps 734 mmHg 88%
    09:00 +9°C° 0.1 mm 6 mps 735 mmHg 86%
    10:00 +9°C° 0.1 mm 6 mps 735 mmHg 84%
    11:00 +9°C° 0.1 mm 6 mps 736 mmHg 81%
    12:00 +9°C° 0.1 mm 6 mps 736 mmHg 77%
    13:00 +10°C° 0.1 mm 6 mps 737 mmHg 74%
    14:00 +10°C° 0.1 mm 6 mps 737 mmHg 71%
    15:00 +10°C° 0.1 mm 6 mps 738 mmHg 68%
    16:00 +10°C° 0.1 mm 6 mps 738 mmHg 65%
    17:00 +9°C° 0 mm 5 mps 739 mmHg 68%
    18:00 +8°C° 0 mm 4 mps 739 mmHg 70%
    19:00 +9°C° 0 mm 3 mps 739 mmHg 72%
    20:00 +8°C° 0 mm 3 mps 740 mmHg 77%
    21:00 +7°C° 0 mm 3 mps 740 mmHg 81%
    22:00 +6°C° 0 mm 2 mps 741 mmHg 86%
    23:00 +5°C° 0 mm 2 mps 741 mmHg 88%

    1 June, Friday

    Time Temperature Precipitation Wind Pressure Humidity
    00:00 +4°C° 0 mm 2 mps 742 mmHg 89%
    01:00 +3°C° 0 mm 2 mps 742 mmHg 91%
    02:00 +2°C° 0 mm 2 mps 742 mmHg 92%
    03:00 +2°C° 0 mm 2 mps 743 mmHg 93%
    04:00 +1°C° 0 mm 2 mps 743 mmHg 94%
    05:00 +3°C° 0 mm 2 mps 744 mmHg 88%
    06:00 +3°C° 0 mm 3 mps 745 mmHg 81%
    07:00 +5°C° 0 mm 3 mps 745 mmHg 75%
    08:00 +7°C° 0 mm 3 mps 746 mmHg 68%
    09:00 +9°C° 0 mm 3 mps 746 mmHg 62%
    10:00 +10°C° 0 mm 3 mps 746 mmHg 55%
    11:00 +11°C° 0 mm 3 mps 746 mmHg 51%
    12:00 +12°C° 0 mm 3 mps 747 mmHg 48%
    13:00 +13°C° 0 mm 3 mps 747 mmHg 44%
    14:00 +13°C° 0 mm 3 mps 747 mmHg 46%
    15:00 +13°C° 0 mm 3 mps 747 mmHg 47%
    16:00 +13°C° 0 mm 3 mps 747 mmHg 49%
    17:00 +13°C° 0 mm 2 mps 747 mmHg 54%
    18:00 +12°C° 0 mm 2 mps 747 mmHg 59%
    19:00 +12°C° 0 mm 2 mps 748 mmHg 63%
    20:00 +9°C° 0 mm 2 mps 748 mmHg 69%
    21:00 +8°C° 0 mm 1 mps 748 mmHg 75%
    22:00 +6°C° 0 mm 1 mps 749 mmHg 81%
    23:00 +5°C° 0 mm 1 mps 749 mmHg 82%

    2 June, Saturday

    Time Temperature Precipitation Wind Pressure Humidity
    00:00 +5°C° 0 mm 1 mps 749 mmHg 83%
    01:00 +4°C° 0 mm 1 mps 749 mmHg 84%
    02:00 +4°C° 0 mm 1 mps 749 mmHg 84%
    03:00 +4°C° 0 mm 1 mps 749 mmHg 85%
    04:00 +3°C° 0 mm 1 mps 750 mmHg 86%
    05:00 +5°C° 0 mm 1 mps 750 mmHg 77%
    06:00 +7°C° 0 mm 1 mps 750 mmHg 68%
    07:00 +9°C° 0 mm 1 mps 750 mmHg 60%
    08:00 +9°C° 0 mm 2 mps 750 mmHg 54%
    09:00 +10°C° 0 mm 2 mps 750 mmHg 49%
    10:00 +13°C° 0 mm 2 mps 750 mmHg 43%
    11:00 +13°C° 0 mm 2 mps 750 mmHg 43%
    12:00 +12°C° 0 mm 3 mps 750 mmHg 43%
    13:00 +12°C° 0 mm 3 mps 750 mmHg 43%
    14:00 +12°C° 0 mm 3 mps 750 mmHg 44%
    15:00 +12°C° 0 mm 3 mps 750 mmHg 44%
    16:00 +13°C° 0 mm 3 mps 750 mmHg 44%
    17:00 +12°C° 0 mm 3 mps 750 mmHg 48%
    18:00 +12°C° 0 mm 2 mps 750 mmHg 53%
    19:00 +12°C° 0 mm 2 mps 750 mmHg 57%
    20:00 +9°C° 0 mm 2 mps 750 mmHg 64%
    21:00 +8°C° 0 mm 1 mps 750 mmHg 72%
    22:00 +6°C° 0 mm 1 mps 751 mmHg 79%
    23:00 +5°C° 0 mm 1 mps 751 mmHg 81%
    Show more